Eelde, Netherlands

9:18 AM CEST on June 23, 2017 (GMT +0200)
Eelde

Weather History for EHGG - November, 2013

Change the Weather History Date:

Tuesday, November 12, 2013

  Actual Average Record
Temperature  
Mean Temperature 44 °F -  
Max Temperature 45 °F 45 °F 59 °F (2015)
Min Temperature 41 °F 34 °F 25 °F (2016)
Degree Days  
Heating Degree Days 22    
Moisture  
Dew Point 42 °F    
Average Humidity 93    
Maximum Humidity 100    
Minimum Humidity 69    
Precipitation  
Precipitation 0.12 in 0.10 in - ()
Sea Level Pressure  
Sea Level Pressure 30.23 in    
Wind  
Wind Speed 11 mph ()    
Max Wind Speed 17 mph    
Max Gust Speed -    
Visibility 4.4 miles    
Events Fog , Rain    
Averages and records for this station are not official NWS values.
T = Trace of Precipitation, MM = Missing Value Source: Averaged Metar Reports

Daily Weather History Graph

Daily Weather History Graph

Search for Another Location

Airport or City:

Trip Planner

Search our weather history database for the weather conditions in past years. The results will help you decide how hot, cold, wet, or windy it might be!

Date:

Astronomy

Nov. 12, 2013 Rise Set
Actual Time 7:52 AM CET 4:42 PM CET
Civil Twilight 7:14 AM CET 5:20 PM CET
Nautical Twilight 6:32 AM CET 6:02 PM CET
Astronomical Twilight 5:51 AM CET 6:43 PM CET
Moon 2:26 PM CET (11/12) 1:42 AM CET (11/12)
Length of Visible Light 10h 06m
Length of Day
8h 50m
Waxing Gibbous, 74% of the Moon is Illuminated
Nov 12
Waxing Gibbous
Nov 17
Full
Nov 25
Last Quarter
Dec 3
New
Dec 9
First Quarter

Hourly Weather History & Observations

Time (CET) Temp. Windchill Dew Point Humidity Pressure Visibility Wind Dir Wind Speed Gust Speed Precip Events Conditions
12:25 AM 46.4 °F 40.4 °F 39.2 °F 76% 30.24 in 6.2 mi South 13.8 mph - N/A   Overcast
12:55 AM 46.4 °F 40.1 °F 39.2 °F 76% 30.24 in 6.2 mi SSW 15.0 mph - N/A   Partly Cloudy
1:00 AM 46 °F - 39 °F 69% 30.26 in 19 mi SSW 13.4 mph - -   Partly Cloudy
1:25 AM 46.4 °F 40.1 °F 39.2 °F 76% 30.24 in 6.2 mi SSW 15.0 mph - N/A   Overcast
1:55 AM 46.4 °F 40.4 °F 39.2 °F 76% 30.24 in 6.2 mi SSW 13.8 mph - N/A   Overcast
2:25 AM 46.4 °F 40.4 °F 39.2 °F 76% 30.24 in 6.2 mi SSW 13.8 mph - N/A   Overcast
2:55 AM 44.6 °F 37.4 °F 39.2 °F 81% 30.24 in 6.2 mi SSW 16.1 mph - N/A   Mostly Cloudy
3:25 AM 44.6 °F 37.2 °F 39.2 °F 81% 30.21 in 5.6 mi SSW 17.3 mph - N/A   Drizzle
3:55 AM 42.8 °F 35.8 °F 41.0 °F 93% 30.21 in 3.1 mi SSW 13.8 mph - N/A   Drizzle
4:00 AM 43 °F - 40 °F 87% 30.23 in 3 mi SSW 13.4 mph - - Rain Drizzle
4:25 AM 42.8 °F 34.8 °F 41.0 °F 93% 30.21 in 5.0 mi SSW 17.3 mph - N/A   Drizzle
4:55 AM 42.8 °F 35.4 °F 41.0 °F 93% 30.21 in 6.2 mi SSW 15.0 mph - N/A   Overcast
5:25 AM 42.8 °F 35.4 °F 41.0 °F 93% 30.21 in - SSW 15.0 mph - N/A   Heavy Drizzle
5:55 AM 42.8 °F 36.2 °F 41.0 °F 93% 30.21 in - SSW 12.7 mph - N/A   Drizzle
6:25 AM 42.8 °F 36.2 °F 41.0 °F 93% 30.18 in - SSW 12.7 mph - N/A   Overcast
6:55 AM 42.8 °F 36.2 °F 41.0 °F 93% 30.18 in 1.7 mi SSW 12.7 mph - N/A   Overcast
7:00 AM 42 °F - 41 °F 96% 30.21 in 2 mi SSW 13.4 mph - -   Mist
7:25 AM 42.8 °F 36.2 °F 41.0 °F 93% 30.18 in 2.2 mi SSW 12.7 mph - N/A   Overcast
7:55 AM 42.8 °F 35.8 °F 41.0 °F 93% 30.18 in - SSW 13.8 mph - N/A   Drizzle
8:25 AM 42.8 °F 36.2 °F 41.0 °F 93% 30.18 in 6.2 mi SSW 12.7 mph - N/A   Overcast
8:55 AM 42.8 °F 35.8 °F 41.0 °F 93% 30.18 in 3.7 mi SSW 13.8 mph - N/A   Overcast
9:25 AM 42.8 °F 36.2 °F 41.0 °F 93% 30.18 in 1.2 mi SSW 12.7 mph - N/A   Overcast
9:55 AM 42.8 °F 36.6 °F 42.8 °F 100% 30.18 in 1.2 mi SSW 11.5 mph - N/A   Overcast
10:00 AM 43 °F - 42 °F 94% 30.21 in 1 mi SSW 11.2 mph - -   Mist
10:25 AM 42.8 °F 36.2 °F 42.8 °F 100% 30.18 in 1.1 mi SSW 12.7 mph - N/A   Drizzle
10:55 AM 42.8 °F 36.6 °F 42.8 °F 100% 30.18 in 1.4 mi SSW 11.5 mph - N/A   Drizzle
11:25 AM 42.8 °F 36.6 °F 42.8 °F 100% 30.18 in 1.4 mi SSW 11.5 mph - N/A   Overcast
11:55 AM 44.6 °F 38.8 °F 42.8 °F 93% 30.21 in 1.2 mi SSW 11.5 mph - N/A   Overcast
12:25 PM 44.6 °F 38.4 °F 42.8 °F 93% 30.18 in - SSW 12.7 mph - N/A Rain Light Rain
12:55 PM 44.6 °F 38.8 °F 44.6 °F 100% 30.18 in 5.6 mi SW 11.5 mph - N/A   Partly Cloudy
1:00 PM 45 °F - 44 °F 93% 30.21 in 5 mi SW 11.2 mph - - Rain Heavy Rain
1:25 PM 44.6 °F 38.8 °F 44.6 °F 100% 30.18 in - SW 11.5 mph - N/A Rain Light Rain
1:55 PM 44.6 °F 38.8 °F 44.6 °F 100% 30.18 in - SW 11.5 mph - N/A   Drizzle
2:25 PM 44.6 °F 40.2 °F 44.6 °F 100% 30.21 in 3.1 mi SW 8.1 mph - N/A Rain Light Rain
2:55 PM 44.6 °F 40.2 °F 44.6 °F 100% 30.21 in 6.2 mi WSW 8.1 mph - N/A   Drizzle
3:25 PM 44.6 °F 40.2 °F 44.6 °F 100% 30.21 in 6.2 mi WSW 8.1 mph - N/A Rain Drizzle
3:55 PM 44.6 °F 40.7 °F 44.6 °F 100% 30.21 in 3.1 mi WSW 6.9 mph - N/A Rain Rain
4:00 PM 45 °F - 44 °F 97% 30.22 in 4 mi WSW 6.7 mph - - Rain Drizzle
4:25 PM 44.6 °F 40.7 °F 44.6 °F 100% 30.21 in 3.7 mi WSW 6.9 mph - N/A   Overcast
4:55 PM 46.4 °F 43.5 °F 44.6 °F 93% 30.21 in 5.6 mi WSW 5.8 mph - N/A   Overcast
5:25 PM 44.6 °F 41.4 °F 44.6 °F 100% 30.21 in 3.1 mi WSW 5.8 mph - N/A   Overcast
5:55 PM 44.6 °F 40.7 °F 44.6 °F 100% 30.24 in 1.4 mi WSW 6.9 mph - N/A   Overcast
6:25 PM 44.6 °F 41.4 °F 44.6 °F 100% 30.24 in 1.9 mi WSW 5.8 mph - N/A   Mostly Cloudy
6:55 PM 44.6 °F 41.4 °F 44.6 °F 100% 30.24 in - WSW 5.8 mph - N/A Fog Fog
7:00 PM 45 °F - 44 °F 96% 30.27 in 0 mi WSW 6.7 mph - - Fog Fog
7:25 PM 44.6 °F 41.4 °F 44.6 °F 100% 30.24 in 1.4 mi West 5.8 mph - N/A   Partly Cloudy
7:55 PM 44.6 °F 41.4 °F 44.6 °F 100% 30.27 in 3.1 mi West 5.8 mph - N/A   Partly Cloudy
8:25 PM 44.6 °F 41.4 °F 42.8 °F 93% 30.27 in 5.6 mi West 5.8 mph - N/A   Unknown
8:55 PM 44.6 °F 41.4 °F 42.8 °F 93% 30.27 in 6.2 mi West 5.8 mph - N/A   Unknown
9:25 PM 44.6 °F 40.7 °F 42.8 °F 93% 30.30 in 6.2 mi WNW 6.9 mph - N/A   Unknown
9:55 PM 42.8 °F 40.1 °F 41.0 °F 93% 30.30 in 6.2 mi West 4.6 mph - N/A   Unknown
10:00 PM 42 °F - 40 °F 91% 30.32 in 7 mi West 4.5 mph - -   Scattered Clouds
10:25 PM 42.8 °F 38.6 °F 41.0 °F 93% 30.30 in 6.2 mi WNW 6.9 mph - N/A   Unknown
10:55 PM 42.8 °F 38.6 °F 41.0 °F 93% 30.33 in 6.2 mi WNW 6.9 mph - N/A   Partly Cloudy
11:25 PM 42.8 °F 39.3 °F 41.0 °F 93% 30.33 in 6.2 mi WNW 5.8 mph - N/A   Scattered Clouds
11:55 PM 41.0 °F 38.0 °F 39.2 °F 93% 30.33 in 6.2 mi West 4.6 mph - N/A   Unknown